Total_Precipitation_Accumulation
2.77 2.91 2.89 2.85 2.92 2.87 2.96 3.16 3.32 3.09 2.71 2.38 2.23 2.06 2.14 2.23 2.43 2.04 2.02 2.20 1.98 1.83 1.75 1.70 1.66 1.60 1.66 1.85 1.90 1.92 2.02 2.11 2.20 2.30 2.43 2.59 2.78 3.02
2.55 2.75 2.77 2.71 2.88 2.97 3.05 3.10 3.17 3.21 2.94 2.44 2.33 2.16 2.17 2.10 2.48 2.11 2.08 2.18 1.91 1.66 1.53 1.45 1.39 1.34 1.39 1.54 1.58 1.64 1.70 1.73 1.78 1.85 1.98 2.11 2.28 2.47
2.36 2.46 2.56 2.66 2.83 2.87 2.94 2.96 3.04 3.10 2.97 2.53 2.40 2.39 2.38 2.31 2.37 2.23 2.11 2.03 1.85 1.70 1.48 1.34 1.29 1.24 1.26 1.38 1.41 1.42 1.50 1.56 1.59 1.62 1.71 1.81 1.91 2.01
2.20 2.28 2.32 2.42 2.55 2.50 2.60 2.62 2.68 2.80 2.80 2.70 2.66 2.56 2.52 2.46 2.35 2.17 1.86 1.63 1.58 1.61 1.45 1.36 1.31 1.27 1.29 1.36 1.38 1.39 1.39 1.37 1.38 1.42 1.50 1.55 1.61 1.72
1.96 2.00 2.06 2.17 2.16 2.10 2.12 2.13 2.24 2.35 2.63 2.63 2.52 2.63 2.54 2.51 2.61 2.27 1.99 1.97 1.49 1.46 1.38 1.33 1.32 1.28 1.25 1.26 1.24 1.23 1.23 1.17 1.11 1.14 1.24 1.35 1.42 1.42
1.74 1.74 1.72 1.69 1.71 1.77 1.78 1.86 2.02 2.33 2.58 2.55 2.36 2.33 2.35 2.32 2.57 2.42 2.29 2.17 1.85 1.40 1.35 1.25 1.25 1.25 1.21 1.14 1.09 1.04 1.04 1.08 1.11 1.09 1.10 1.13 1.18 1.21
1.63 1.59 1.51 1.50 1.55 1.52 1.43 1.61 1.90 2.22 2.38 2.42 2.34 2.23 2.16 2.22 2.27 2.16 2.14 2.18 2.07 1.70 1.61 1.36 1.24 1.24 1.27 1.22 1.15 1.03 0.94 0.92 0.96 1.00 1.02 1.04 1.07 1.12
1.60 1.49 1.41 1.40 1.36 1.31 1.28 1.39 1.58 1.79 1.99 2.14 2.13 2.10 2.07 2.10 2.20 2.20 2.24 2.31 2.19 1.89 1.88 1.72 1.47 1.54 1.47 1.30 1.20 1.08 1.01 0.96 0.93 0.95 1.01 1.05 1.03 1.04
1.56 1.57 1.35 1.18 1.30 1.29 1.32 1.35 1.36 1.45 1.62 1.86 1.99 1.93 2.00 2.10 2.33 2.30 2.35 2.38 2.23 2.01 2.11 2.04 1.86 1.80 1.51 1.31 1.31 1.12 1.01 0.97 0.95 0.95 0.98 1.03 1.07 1.07
1.44 1.46 1.50 1.45 1.37 1.39 1.37 1.35 1.31 1.34 1.44 1.53 1.72 1.78 1.78 1.95 2.20 2.23 2.28 2.31 2.21 2.04 2.13 2.16 1.89 1.82 1.51 1.55 1.46 1.18 1.03 0.99 0.95 0.89 0.91 0.97 1.06 1.13
1.27 1.26 1.25 1.25 1.28 1.36 1.44 1.51 1.47 1.41 1.26 1.32 1.39 1.52 1.65 1.77 1.91 2.01 2.18 2.40 2.35 2.13 2.07 2.16 1.98 1.88 1.70 1.69 1.51 1.31 1.19 1.17 1.09 0.94 0.86 0.88 0.97 1.08
1.24 1.20 1.13 1.05 1.05 1.07 1.16 1.42 1.56 1.48 1.37 1.39 1.50 1.64 1.74 1.82 1.83 1.89 2.09 2.30 2.33 2.33 2.06 2.11 2.06 2.05 1.97 1.67 1.52 1.45 1.40 1.44 1.35 1.15 0.97 0.94 1.02 1.03
1.15 1.14 1.10 0.98 0.85 0.87 1.00 1.22 1.36 1.39 1.50 1.74 1.95 1.98 1.97 1.94 1.83 1.78 1.95 2.12 2.22 2.23 1.97 2.05 2.09 2.14 2.20 1.89 1.55 1.52 1.58 1.65 1.60 1.40 1.19 1.14 1.14 1.08
1.11 1.13 1.08 0.99 0.86 0.88 0.95 1.09 1.19 1.34 1.59 1.89 2.04 1.99 1.77 1.62 1.64 1.66 1.74 1.89 1.98 1.97 1.90 1.97 2.07 2.11 2.12 1.93 1.68 1.57 1.68 1.78 1.78 1.67 1.46 1.39 1.32 1.22
0.99 1.03 1.02 1.02 1.00 1.05 1.09 1.12 1.20 1.42 1.65 1.78 1.79 1.68 1.56 1.51 1.56 1.67 1.67 1.83 1.88 1.69 1.61 1.65 1.82 1.95 2.09 1.99 1.83 1.80 1.89 2.02 1.99 1.94 1.82 1.59 1.45 1.40
0.97 1.05 1.13 1.18 1.18 1.17 1.21 1.29 1.35 1.46 1.51 1.58 1.56 1.50 1.46 1.51 1.56 1.57 1.66 1.80 1.96 1.82 1.67 1.61 1.67 1.87 1.99 1.92 1.97 1.99 2.01 2.25 2.21 2.09 2.03 1.92 1.69 1.48
0.95 1.10 1.28 1.36 1.36 1.31 1.28 1.31 1.34 1.37 1.39 1.36 1.38 1.40 1.44 1.46 1.46 1.48 1.62 1.71 1.83 1.79 1.76 1.73 1.73 1.79 1.75 1.78 1.88 1.87 1.95 2.11 2.19 2.17 2.17 2.23 2.13 1.85
1.03 1.22 1.37 1.43 1.44 1.31 1.25 1.22 1.20 1.22 1.19 1.21 1.27 1.34 1.39 1.38 1.39 1.43 1.53 1.66 1.76 1.72 1.73 1.76 1.78 1.91 1.91 1.76 1.76 1.83 1.84 2.04 2.15 2.12 2.07 2.22 2.29 2.05
1.02 1.16 1.31 1.40 1.45 1.30 1.21 1.22 1.22 1.21 1.20 1.23 1.27 1.30 1.34 1.35 1.39 1.45 1.51 1.60 1.66 1.68 1.67 1.69 1.73 1.80 1.87 1.81 1.71 1.74 1.84 1.95 2.03 2.02 2.01 2.05 2.17 2.06
1.08 1.13 1.21 1.33 1.38 1.33 1.25 1.26 1.25 1.26 1.27 1.29 1.29 1.32 1.36 1.39 1.36 1.35 1.42 1.47 1.53 1.62 1.67 1.68 1.70 1.69 1.70 1.70 1.81 1.80 1.70 1.66 1.69 1.79 1.85 1.92 1.97 1.94
1.03 1.05 1.09 1.18 1.27 1.34 1.36 1.33 1.27 1.24 1.26 1.30 1.30 1.34 1.37 1.37 1.36 1.31 1.34 1.38 1.42 1.53 1.64 1.64 1.63 1.62 1.62 1.70 1.78 1.78 1.72 1.76 1.71 1.65 1.68 1.80 1.76 1.61
1.02 1.05 1.08 1.11 1.16 1.22 1.29 1.29 1.25 1.18 1.17 1.25 1.33 1.38 1.40 1.39 1.33 1.25 1.29 1.39 1.45 1.49 1.53 1.52 1.50 1.58 1.64 1.74 1.78 1.79 1.75 1.62 1.59 1.61 1.57 1.44 1.33 1.32
1.15 1.11 1.08 1.10 1.10 1.10 1.13 1.19 1.21 1.15 1.14 1.19 1.29 1.36 1.34 1.32 1.29 1.23 1.19 1.22 1.27 1.31 1.42 1.54 1.57 1.60 1.63 1.64 1.69 1.67 1.57 1.48 1.35 1.32 1.39 1.39 1.24 1.18